Theta_e
344 344 343 344 345 344 344 343 343 342 342 342 342 343 344 346 348 348 348 349 349 350 351 353 358 358 357 356 359 359 359 357 359 355 356 357 354 354 354 353 353 354
343 345 346 345 346 348 346 345 344 343 342 343 343 344 345 347 346 348 348 348 350 351 351 352 355 356 356 354 356 356 358 358 357 359 356 357 356 355 354 354 354 353
343 344 345 344 344 345 344 345 345 344 343 343 344 345 344 347 346 348 349 348 349 350 351 353 354 357 355 355 355 356 356 356 355 358 360 357 356 355 356 355 354 352
343 344 345 344 344 345 345 345 345 345 345 344 344 345 346 347 348 347 349 352 350 351 351 352 354 355 355 355 356 355 356 356 357 357 359 359 358 357 356 356 357 355
344 343 345 346 344 346 345 344 344 344 344 345 345 347 349 349 349 347 349 350 351 350 352 353 353 354 356 356 356 355 355 355 356 356 356 356 356 358 357 357 356 354
345 345 345 346 346 345 344 343 344 344 345 345 345 348 348 348 348 348 349 349 350 350 350 352 352 353 354 355 356 356 356 355 355 355 355 354 355 355 356 357 356 355
345 345 344 346 346 345 344 344 344 346 345 346 348 347 348 347 348 349 349 349 350 351 351 352 353 353 354 355 355 355 355 356 356 355 354 354 355 354 354 356 357 356
345 346 346 346 346 346 346 345 344 345 346 347 346 347 349 348 348 349 350 349 350 351 352 352 353 353 353 353 354 354 354 354 354 355 354 353 353 353 353 353 355 355
345 345 345 345 345 345 345 346 346 345 347 346 346 347 349 349 349 349 350 350 350 350 352 352 353 352 353 353 353 353 353 353 354 354 353 352 351 352 352 354 353 354
345 345 345 344 344 344 344 346 346 346 348 347 346 347 348 350 350 349 349 350 349 350 351 352 352 352 352 353 353 352 352 353 354 354 353 353 352 352 353 353 353 353
344 344 344 344 344 344 344 344 345 345 347 347 346 346 346 348 350 350 349 349 347 348 349 350 351 352 352 352 353 353 353 352 352 353 353 353 353 354 355 354 354 353
344 344 344 344 344 344 344 344 344 345 345 347 346 345 345 345 347 348 348 347 348 348 349 349 350 351 352 352 352 352 352 352 353 353 353 353 353 353 354 355 354 354
345 345 345 344 345 345 345 344 344 344 343 344 347 345 344 343 344 346 349 347 347 348 348 349 349 349 351 352 352 352 352 352 352 352 353 353 353 353 354 354 354 354
346 346 346 346 346 346 345 345 344 344 343 344 346 345 343 343 343 343 344 348 347 347 348 350 349 349 350 351 352 352 351 351 352 352 352 352 352 353 353 353 354 354
346 347 347 347 348 346 345 345 345 345 344 343 344 343 343 343 343 343 343 344 346 347 347 348 348 348 349 349 350 350 351 350 350 351 352 352 352 351 352 353 353 354
346 348 348 347 347 346 346 346 346 346 344 343 341 342 343 345 343 343 343 343 343 345 346 345 346 347 351 353 352 350 350 349 349 350 351 351 352 351 351 352 352 353
346 346 347 346 347 347 347 346 346 346 346 345 343 341 341 343 344 342 341 342 342 343 344 344 345 346 351 341 341 352 352 349 348 349 349 350 350 350 350 351 351 351
345 345 344 344 344 345 346 347 347 346 346 346 344 342 342 342 341 342 342 341 342 342 342 343 344 350 338 337 338 338 353 351 348 348 348 348 348 348 349 350 350 351
341 341 341 342 342 342 343 345 345 345 345 345 344 344 343 341 340 340 340 341 341 341 341 342 343 345 335 334 335 335 338 356 350 347 347 346 347 347 348 348 349 350
340 340 341 342 342 342 343 342 343 343 344 344 345 346 343 342 341 340 340 341 341 341 342 343 343 345 334 332 332 332 333 343 351 349 347 346 347 347 347 348 349 349
341 340 340 341 342 342 342 341 342 342 344 345 345 343 342 341 341 341 341 341 341 342 341 341 342 337 331 330 329 329 331 342 347 348 348 348 347 348 348 349 349 349
342 342 342 343 342 342 342 342 342 342 342 345 347 345 344 343 343 343 342 342 342 342 341 341 342 332 329 328 327 328 331 343 345 346 347 347 347 347 348 349 350 350
344 342 342 343 343 343 342 343 343 343 344 347 347 348 347 344 342 342 344 343 343 343 342 342 342 336 327 325 325 326 332 341 344 346 346 346 347 348 349 350 351 352
343 344 343 344 343 342 342 343 344 344 344 348 347 347 347 347 347 345 344 344 344 343 343 342 342 340 327 323 323 324 336 340 342 344 345 347 348 349 350 351 352 357
343 344 344 345 344 344 343 343 343 344 346 347 348 349 348 349 350 347 346 346 345 345 349 347 344 343 328 323 322 322 332 341 342 343 343 345 347 349 351 353 352 357
345 345 345 345 345 346 346 345 346 347 347 347 348 349 349 349 349 348 346 346 347 347 346 349 348 347 345 326 322 322 325 341 343 343 342 344 346 347 348 350 353 353
Wind_Speed
7 6 7 7 7 6 7 7 5 6 7 6 6 6 6 6 5 5 5 4 5 4 4 4 4 3 3 3 3 3 3 3 2 2 2 3 3 3 2 3 2 2
8 7 7 7 5 5 6 6 6 7 7 7 6 6 5 5 5 5 5 5 5 5 5 5 4 4 4 3 4 3 3 3 3 2 3 3 2 2 2 3 3 2
9 8 8 7 6 6 7 6 6 6 6 6 6 5 5 5 5 5 5 5 5 5 5 5 5 4 4 4 4 3 3 4 4 3 3 4 2 3 3 2 2 3
9 9 7 7 6 7 6 5 5 6 5 5 6 5 5 5 5 5 5 6 5 5 5 5 5 4 4 4 4 3 4 4 4 3 3 2 2 3 3 2 2 1
8 8 9 7 7 6 6 6 7 6 6 6 5 5 5 5 5 5 5 5 5 5 5 5 5 4 4 4 4 4 4 4 3 4 4 4 3 3 2 2 2 2
9 8 8 7 7 6 6 7 7 6 7 6 6 5 5 6 5 6 6 6 6 5 6 5 5 5 5 5 4 5 4 4 4 5 5 5 3 2 2 2 2 3
9 10 10 7 7 6 6 7 6 6 7 6 5 6 5 5 6 6 6 6 7 6 6 6 6 5 5 5 5 5 5 5 5 5 5 4 3 3 2 3 3 4
10 8 7 6 7 6 7 6 6 6 6 6 6 7 6 7 7 6 6 7 7 6 7 6 6 7 6 5 6 6 6 4 5 5 5 5 3 4 4 3 4 5
8 8 7 8 8 6 7 7 6 6 6 7 7 6 7 7 7 7 7 7 6 7 7 6 7 6 6 6 6 7 6 5 5 6 6 5 5 6 6 4 4 4
8 7 8 8 8 6 7 7 6 5 6 7 7 6 7 7 7 7 7 7 7 7 7 6 7 6 6 6 7 7 7 7 6 6 6 6 6 6 6 5 6 5
8 8 8 8 8 6 7 7 6 6 5 7 7 7 7 7 6 6 6 6 6 7 6 7 7 7 7 6 6 6 7 7 6 6 6 7 7 7 6 6 6 6
9 8 8 9 8 7 8 7 6 6 6 6 7 8 7 7 7 6 6 7 7 7 7 7 8 8 8 8 8 7 7 6 6 7 7 7 7 7 6 6 6 7
8 8 8 8 8 7 7 7 7 7 7 7 6 7 7 7 7 8 7 7 7 7 7 8 8 8 8 8 8 7 8 7 7 7 7 6 7 7 7 7 7 7
8 8 8 8 7 7 7 7 6 7 7 6 6 7 7 7 7 8 7 6 7 7 7 6 7 8 8 8 7 7 7 7 8 7 7 7 6 7 7 7 7 7
7 6 6 7 7 7 7 7 7 6 6 6 6 6 5 6 6 6 7 7 7 7 6 6 6 6 5 6 7 7 7 7 7 7 7 7 7 7 6 6 6 6
6 5 6 6 7 8 8 7 7 6 6 6 7 7 7 6 6 6 7 7 7 7 7 6 6 5 7 12 10 7 8 7 7 7 8 7 7 7 6 7 7 6
6 6 6 6 6 6 6 7 7 6 7 7 7 7 6 6 6 7 7 7 8 7 8 7 6 7 12 13 14 15 9 7 8 8 8 7 7 7 7 6 6 6
4 4 5 4 3 4 3 4 4 5 6 7 7 7 7 6 6 8 7 7 7 7 8 8 8 10 14 14 15 16 14 9 8 7 7 7 7 7 6 6 7 6
9 9 8 7 6 4 3 2 3 4 6 6 8 7 6 7 7 7 8 7 7 8 9 8 9 11 14 14 15 16 16 14 8 8 8 8 7 7 8 8 7 7
9 7 6 6 6 6 6 6 6 7 6 5 5 5 6 7 7 8 8 7 8 8 8 8 9 11 14 15 15 16 16 14 9 9 8 8 9 9 8 8 8 8
9 8 9 8 8 9 9 9 8 7 7 6 6 7 7 8 8 8 8 8 9 9 8 9 8 13 14 15 16 16 16 12 8 8 8 8 8 9 9 9 9 8
5 5 6 7 7 7 8 9 9 9 10 8 6 5 6 6 6 7 8 9 8 9 9 10 10 14 15 16 16 16 16 8 8 9 9 9 9 9 9 8 8 8
4 5 5 6 6 7 8 8 7 7 7 6 7 7 7 7 8 8 7 8 8 8 9 10 10 12 15 16 16 18 12 8 8 7 8 9 10 9 9 9 8 8
8 7 7 7 7 8 8 7 7 6 7 6 8 9 8 8 7 7 7 7 8 8 8 9 9 11 14 15 16 17 14 10 9 9 9 9 9 9 8 7 9 13
6 6 7 7 7 7 7 8 8 8 7 6 7 7 8 6 6 7 7 7 8 9 11 12 10 11 14 15 16 16 13 9 9 9 9 9 9 9 8 7 7 9
4 5 6 7 7 7 6 7 6 5 6 7 7 7 8 7 7 8 9 9 9 10 10 11 10 9 10 15 15 16 16 11 8 9 10 10 9 9 8 8 8 7
Wind_Direction
189 192 194 193 195 192 184 189 183 175 186 189 191 194 196 201 184 184 194 186 190 189 197 207 208 183 173 166 164 158 164 177 153 160 173 152 151 152 149 157 161 157
189 191 200 197 188 189 187 191 186 186 185 191 198 191 199 182 193 184 188 191 194 199 193 200 200 189 175 166 169 170 163 160 185 172 171 181 174 171 171 175 181 165
188 193 196 194 191 186 184 190 186 190 186 192 189 190 197 192 186 191 188 188 192 198 190 193 194 186 174 173 167 183 182 181 202 195 180 196 174 198 214 180 168 189
192 195 195 198 193 189 181 180 188 193 193 186 194 193 195 193 182 191 193 202 190 197 193 189 192 182 178 173 164 187 199 200 200 172 186 167 196 204 214 186 207 219
189 196 201 197 196 188 180 185 194 192 196 199 192 191 197 195 188 194 192 201 193 197 191 193 185 184 172 173 172 188 194 202 185 173 185 204 206 200 207 188 201 244
195 195 197 197 192 180 184 195 198 195 200 198 200 189 198 198 197 198 195 196 198 197 196 194 186 188 182 180 181 193 194 197 188 177 188 205 213 205 224 200 212 233
192 196 198 193 189 182 187 199 202 201 202 206 192 203 198 200 206 206 201 199 195 196 195 192 192 190 186 180 186 196 196 197 183 185 192 204 205 225 225 222 219 231
193 188 187 186 187 183 192 196 202 203 202 199 202 208 200 204 208 210 203 201 199 195 197 191 192 193 188 182 191 198 203 197 192 187 192 210 192 227 218 219 218 230
187 188 184 182 187 187 197 198 200 203 195 198 204 206 204 206 207 208 208 203 206 202 197 196 192 194 192 190 197 197 201 203 200 191 195 201 205 215 219 205 217 226
186 186 182 183 188 189 197 203 199 198 193 199 206 201 198 206 207 207 207 205 208 208 203 203 196 198 194 197 198 198 200 205 201 200 203 209 209 213 213 207 215 225
188 186 188 189 190 189 198 200 201 198 192 199 198 201 202 195 203 201 204 203 207 206 205 207 205 200 199 203 207 203 205 204 203 202 207 209 213 214 218 213 217 221
189 187 191 193 194 195 198 199 199 201 196 199 195 202 196 193 196 193 198 203 208 208 204 208 207 203 203 203 203 203 204 207 205 207 210 212 215 214 219 219 220 222
189 190 189 191 194 199 199 199 200 199 197 203 199 204 200 195 195 200 204 200 206 205 206 206 207 206 207 205 205 202 202 202 208 208 211 214 214 217 219 222 223 225
196 189 187 189 190 192 199 203 202 199 198 197 192 206 211 207 199 200 201 202 205 208 212 207 207 209 208 208 206 203 201 205 206 209 210 215 219 218 221 222 224 226
197 195 187 181 182 185 194 200 201 200 196 194 199 209 209 212 210 205 203 205 213 214 218 214 210 212 204 202 205 208 205 209 207 209 212 213 220 224 221 223 227 229
194 198 196 189 185 190 193 195 199 193 192 195 205 210 213 210 212 212 210 211 212 216 213 213 215 213 212 208 206 203 205 212 211 215 216 216 219 224 226 221 227 225
188 200 199 201 206 202 195 195 200 200 203 203 206 211 212 211 208 213 215 214 214 214 217 214 216 217 217 214 212 214 206 208 212 217 215 215 216 219 232 230 228 228
145 156 172 183 174 196 196 210 213 210 214 211 209 213 217 209 213 220 223 223 219 218 223 225 225 223 217 215 214 215 215 212 209 214 213 214 215 219 227 233 240 237
182 185 180 172 162 151 149 136 163 210 222 222 221 220 214 212 221 220 227 226 224 227 230 230 233 228 223 221 218 216 217 217 212 214 216 220 215 218 224 231 234 240
199 194 195 201 192 190 194 200 199 208 205 209 218 223 224 228 224 225 226 224 224 226 231 235 234 235 225 223 222 220 219 217 224 217 216 220 221 219 222 224 226 228
197 198 201 201 201 203 203 209 214 224 224 216 206 204 210 219 224 228 229 226 225 222 229 234 235 233 228 225 225 223 223 215 224 224 225 228 226 224 222 223 223 223
205 209 207 201 202 209 214 217 215 214 217 214 210 215 217 212 219 216 227 231 229 225 226 235 238 232 227 226 225 225 223 216 221 224 227 230 233 230 227 224 224 221
230 219 223 219 209 212 221 225 222 218 222 210 216 216 212 214 219 216 216 222 225 223 226 234 239 232 225 224 224 224 218 220 221 222 228 231 233 230 226 224 220 218
209 204 212 215 209 218 222 230 233 233 224 208 218 223 223 219 219 224 220 216 221 226 220 230 236 237 227 227 226 223 209 212 213 216 223 225 232 228 224 224 222 215
219 222 222 217 216 215 215 220 222 226 227 216 226 230 236 226 209 223 223 213 213 219 221 222 230 233 223 223 225 227 216 216 211 212 219 223 224 229 223 221 219 222
239 233 233 235 236 235 222 222 220 220 217 216 223 224 231 226 220 219 225 228 219 219 223 223 226 229 222 216 219 222 213 213 213 212 217 220 218 217 224 223 222 214